Weather History for KGHW - March, 2013

Change the Weather History Date:

Saturday, March 2, 2013

  Actual Average (WUND) Record (WUND)
Temperature  
Mean Temperature 14 °F -  
Max Temperature 24 °F - - (-1)
Min Temperature 3 °F - - (-1)
Degree Days  
Heating Degree Days 52    
Moisture  
Dew Point 9 °F    
Average Humidity 78    
Maximum Humidity 92    
Minimum Humidity 54    
Precipitation  
Precipitation 0.00 in - - ()
Sea Level Pressure  
Sea Level Pressure 30.23 in    
Wind  
Wind Speed 5 mph (ESE)    
Max Wind Speed 10 mph    
Max Gust Speed -    
Visibility 10 miles    
Events      
Averages and records for this station are not official NWS values.
T = Trace of Precipitation, MM = Missing Value Source: NWS Daily Summary

Daily Weather History Graph

Daily Weather History Graph

Search for Another Location

Airport or City:

Trip Planner

Search our weather history database for the weather conditions in past years. The results will help you decide how hot, cold, wet, or windy it might be!

Date:

Astronomy

Mar. 02, 2013 Rise Set
Actual Time 6:57 AM CST 6:09 PM CST
Civil Twilight 6:27 AM CST 6:39 PM CST
Nautical Twilight 5:53 AM CST 7:14 PM CST
Astronomical Twilight 5:18 AM CST 7:48 PM CST
Moon No Moon Rise 9:08 AM CST (3/2)
Length of Visible Light 12h 11m
Length of Day
11h 12m
Waning Gibbous, 74% of the Moon is Illuminated
Mar 2
Waning Gibbous
Mar 4
Last Quarter
Mar 11
New
Mar 19
First Quarter
Mar 27
Full

Hourly Weather History & Observations

Time (CST) Temp. Windchill Dew Point Humidity Pressure Visibility Wind Dir Wind Speed Gust Speed Precip Events Conditions
12:33 AM 12.2 °F 6.1 °F 10.4 °F 92% 30.33 in 7.0 mi NNE 3.5 mph - N/A   Clear
12:53 AM 10.4 °F 2.2 °F 8.6 °F 92% 30.33 in 5.0 mi NE 4.6 mph - N/A   Clear
1:13 AM 8.6 °F - 6.8 °F 92% 30.32 in 10.0 mi Calm Calm - N/A   Clear
1:33 AM 8.6 °F - 6.8 °F 92% 30.33 in 5.0 mi Calm Calm - N/A   Clear
1:53 AM 8.6 °F - 6.8 °F 92% 30.33 in 10.0 mi Calm Calm - N/A   Clear
2:13 AM 6.8 °F -0.1 °F 3.2 °F 85% 30.33 in 10.0 mi North 3.5 mph - N/A   Clear
2:33 AM 5.0 °F -4.1 °F 3.2 °F 92% 30.32 in 7.0 mi NE 4.6 mph - N/A   Clear
2:53 AM 6.8 °F -0.1 °F 5.0 °F 92% 30.32 in 10.0 mi ENE 3.5 mph - N/A   Clear
3:14 AM 6.8 °F -2.0 °F 3.2 °F 85% 30.32 in 7.0 mi ENE 4.6 mph - N/A   Clear
3:33 AM 6.8 °F -2.0 °F 5.0 °F 92% 30.32 in 10.0 mi ENE 4.6 mph - N/A   Clear
3:53 AM 6.8 °F -3.5 °F 3.2 °F 85% 30.30 in 10.0 mi East 5.8 mph - N/A   Clear
4:14 AM 5.0 °F -5.6 °F 1.4 °F 85% 30.30 in 10.0 mi East 5.8 mph - N/A   Clear
4:33 AM 6.8 °F -3.5 °F 3.2 °F 85% 30.30 in 10.0 mi East 5.8 mph - N/A   Clear
4:53 AM 5.0 °F -4.1 °F 1.4 °F 85% 30.30 in 10.0 mi East 4.6 mph - N/A   Clear
5:14 AM 5.0 °F -2.1 °F 3.2 °F 92% 30.31 in 10.0 mi East 3.5 mph - N/A   Clear
5:33 AM 5.0 °F -4.1 °F 1.4 °F 85% 30.30 in 10.0 mi East 4.6 mph - N/A   Clear
5:53 AM 5.0 °F -2.1 °F 1.4 °F 85% 30.31 in 10.0 mi East 3.5 mph - N/A   Clear
6:14 AM 5.0 °F -4.1 °F 1.4 °F 85% 30.30 in 10.0 mi ESE 4.6 mph - N/A   Clear
6:33 AM 3.2 °F -7.8 °F 1.4 °F 92% 30.30 in 10.0 mi East 5.8 mph - N/A   Clear
6:53 AM 3.2 °F -7.8 °F 1.4 °F 92% 30.30 in 10.0 mi East 5.8 mph - N/A   Clear
7:14 AM 3.2 °F -4.2 °F -0.4 °F 85% 30.30 in 10.0 mi East 3.5 mph - N/A   Clear
7:33 AM 3.2 °F -6.2 °F 1.4 °F 92% 30.30 in 10.0 mi East 4.6 mph - N/A   Clear
7:53 AM 3.2 °F -7.8 °F 1.4 °F 92% 30.29 in 10.0 mi East 5.8 mph - N/A   Clear
8:13 AM 3.2 °F -7.8 °F 1.4 °F 92% 30.29 in 10.0 mi ESE 5.8 mph - N/A   Clear
8:33 AM 5.0 °F -5.6 °F 1.4 °F 85% 30.28 in 10.0 mi ESE 5.8 mph - N/A   Clear
8:53 AM 6.8 °F -0.1 °F 3.2 °F 85% 30.28 in 10.0 mi ESE 3.5 mph - N/A   Clear
9:13 AM 8.6 °F 2.0 °F 5.0 °F 85% 30.28 in 10.0 mi ESE 3.5 mph - N/A   Clear
9:33 AM 10.4 °F 0.8 °F 6.8 °F 85% 30.28 in 10.0 mi ESE 5.8 mph - N/A   Clear
9:53 AM 12.2 °F 2.9 °F 8.6 °F 85% 30.29 in 10.0 mi ESE 5.8 mph - N/A   Clear
10:13 AM 14.0 °F 6.5 °F 8.6 °F 79% 30.28 in 10.0 mi ESE 4.6 mph - N/A   Clear
10:33 AM 15.8 °F 7.2 °F 10.4 °F 79% 30.28 in 10.0 mi ESE 5.8 mph - N/A   Clear
10:53 AM 15.8 °F 5.1 °F 10.4 °F 79% 30.27 in 10.0 mi ESE 8.1 mph - N/A   Clear
11:13 AM 17.6 °F 7.3 °F 10.4 °F 73% 30.26 in 10.0 mi ESE 8.1 mph - N/A   Clear
11:33 AM 17.6 °F 8.2 °F 10.4 °F 73% 30.25 in 10.0 mi ESE 6.9 mph - N/A   Clear
11:54 AM 19.4 °F 11.5 °F 10.4 °F 68% 30.25 in 10.0 mi SE 5.8 mph - N/A   Clear
12:33 PM 21.2 °F 14.9 °F 10.4 °F 63% 30.25 in 10.0 mi South 4.6 mph - N/A   Clear
12:53 PM 21.2 °F 13.6 °F 12.2 °F 68% 30.23 in 10.0 mi SSE 5.8 mph - N/A   Clear
1:13 PM 21.2 °F 16.4 °F 12.2 °F 68% 30.22 in 10.0 mi SSE 3.5 mph - N/A   Clear
1:33 PM 24.8 °F 16.9 °F 12.2 °F 59% 30.21 in 10.0 mi ESE 6.9 mph - N/A   Clear
1:54 PM 24.8 °F 16.9 °F 14.0 °F 64% 30.20 in 10.0 mi SE 6.9 mph - N/A   Mostly Cloudy
2:13 PM 24.8 °F 16.9 °F 12.2 °F 59% 30.20 in 10.0 mi SSE 6.9 mph - N/A   Mostly Cloudy
2:33 PM 24.8 °F 16.1 °F 12.2 °F 59% 30.19 in 10.0 mi SSE 8.1 mph - N/A   Mostly Cloudy
2:54 PM 24.8 °F 15.3 °F 12.2 °F 59% 30.18 in 10.0 mi SE 9.2 mph - N/A   Mostly Cloudy
3:13 PM 24.8 °F 15.3 °F 12.2 °F 59% 30.18 in 10.0 mi SE 9.2 mph - N/A   Mostly Cloudy
3:33 PM 24.8 °F 15.3 °F 12.2 °F 59% 30.18 in 10.0 mi SE 9.2 mph - N/A   Overcast
3:53 PM 24.8 °F 16.9 °F 12.2 °F 59% 30.17 in 10.0 mi SE 6.9 mph - N/A   Overcast
4:13 PM 24.8 °F 16.1 °F 10.4 °F 54% 30.17 in 10.0 mi ESE 8.1 mph - N/A   Overcast
4:33 PM 24.8 °F 16.1 °F 12.2 °F 59% 30.16 in 10.0 mi ESE 8.1 mph - N/A   Overcast
4:53 PM 23.0 °F 13.9 °F 12.2 °F 63% 30.16 in 10.0 mi ESE 8.1 mph - N/A   Overcast
5:13 PM 23.0 °F 13.9 °F 14.0 °F 68% 30.15 in 10.0 mi ESE 8.1 mph - N/A   Overcast
5:33 PM 21.2 °F 11.7 °F 14.0 °F 74% 30.16 in 10.0 mi ESE 8.1 mph - N/A   Overcast
5:53 PM 21.2 °F 13.6 °F 15.8 °F 80% 30.16 in 10.0 mi ESE 5.8 mph - N/A   Overcast
6:13 PM 21.2 °F 11.7 °F 14.0 °F 74% 30.16 in 10.0 mi East 8.1 mph - N/A   Overcast
6:34 PM 21.2 °F 11.7 °F 12.2 °F 68% 30.16 in 10.0 mi ESE 8.1 mph - N/A   Overcast
6:53 PM 21.2 °F 10.9 °F 12.2 °F 68% 30.15 in 10.0 mi ESE 9.2 mph - N/A   Overcast
7:13 PM 21.2 °F 10.9 °F 12.2 °F 68% 30.15 in 10.0 mi ESE 9.2 mph - N/A   Overcast
7:34 PM 21.2 °F 10.9 °F 12.2 °F 68% 30.16 in 10.0 mi ESE 9.2 mph - N/A   Overcast
7:53 PM 21.2 °F 11.7 °F 12.2 °F 68% 30.15 in 10.0 mi ESE 8.1 mph - N/A   Overcast
8:13 PM 21.2 °F 13.6 °F 12.2 °F 68% 30.16 in 10.0 mi SE 5.8 mph - N/A   Overcast
8:34 PM 21.2 °F 11.7 °F 12.2 °F 68% 30.14 in 10.0 mi SE 8.1 mph - N/A   Overcast
8:53 PM 21.2 °F 10.9 °F 14.0 °F 74% 30.14 in 10.0 mi SE 9.2 mph - N/A   Overcast
9:13 PM 21.2 °F 11.7 °F 14.0 °F 74% 30.14 in 10.0 mi ESE 8.1 mph - N/A   Overcast
9:34 PM 19.4 °F 7.9 °F 15.8 °F 86% 30.13 in 10.0 mi ESE 10.4 mph - N/A   Overcast
9:53 PM 19.4 °F 7.9 °F 15.8 °F 86% 30.12 in 10.0 mi ESE 10.4 mph - N/A   Overcast
10:13 PM 19.4 °F 7.9 °F 15.8 °F 86% 30.12 in 10.0 mi East 10.4 mph - N/A   Overcast
10:34 PM 19.4 °F 8.6 °F 15.8 °F 86% 30.12 in 10.0 mi ESE 9.2 mph - N/A   Overcast
10:53 PM 19.4 °F 9.5 °F 15.8 °F 86% 30.11 in 10.0 mi ESE 8.1 mph - N/A   Overcast
11:13 PM 19.4 °F 9.5 °F 15.8 °F 86% 30.11 in 10.0 mi ESE 8.1 mph - N/A   Overcast
11:33 PM 19.4 °F 8.6 °F 15.8 °F 86% 30.09 in 10.0 mi SE 9.2 mph - N/A   Overcast
11:53 PM 19.4 °F 9.5 °F 15.8 °F 86% 30.09 in 10.0 mi SE 8.1 mph - N/A   Overcast